Fairbanks, AK

8:49 AM AKDT on August 17, 2019 (GMT -0800)
Fairbanks International

Weather History for PAFA - May, 2019

Change the Weather History Date:

Saturday, May 25, 2019

  Actual Average Record
Temperature  
Mean Temperature 60 °F 53 °F  
Max Temperature 75 °F 65 °F 87 °F (1960)
Min Temperature 45 °F 41 °F 29 °F (1905)
Degree Days  
Heating Degree Days 5 12  
Month to date heating degree days 311 421  
Since 1 July heating degree days 11573 13445  
Cooling Degree Days 0 0  
Month to date cooling degree days 0 0  
Year to date cooling degree days 0 0  
Growing Degree Days 10 (Base 50)    
Moisture  
Dew Point 42 °F    
Average Humidity 51    
Maximum Humidity 90    
Minimum Humidity 18    
Precipitation  
Precipitation 0.00 in 0.03 in 0.52 in (2012)
Month to date precipitation 0.68 0.46  
Year to date precipitation 3.16 2.02  
Snow  
Snow 0.00 in 0.00 in 0.00 in (2001)
Month to date snowfall T 0.9  
Since 1 July snowfall 57.5 65.0  
Snow Depth 0.00 in    
Sea Level Pressure  
Sea Level Pressure 29.93 in    
Wind  
Wind Speed 4 mph (East)    
Max Wind Speed 13 mph    
Max Gust Speed 16 mph    
Visibility 10 miles    
Events      
T = Trace of Precipitation, MM = Missing Value Source: NWS Daily Summary

Daily Weather History Graph

Daily Weather History Graph

Search for Another Location

Airport or City:

Astronomy

May. 25, 2019 Rise Set
Actual Time 3:55 AM AKDT 11:44 PM AKDT
Civil Twilight 2:20 AM AKDT 1:16 AM AKDT
Nautical Twilight Sun does not set Sun does not set
Astronomical Twilight Sun does not set Sun does not set
Moon 4:01 AM AKDT (5/25) 10:56 AM AKDT (5/25)
Length of Visible Light 22h 55m
Length of Day
19h 48m
Waning Gibbous, 58% of the Moon is Illuminated
May 25
Waning Gibbous
May 26
Last Quarter
Jun 3
New
Jun 9
First Quarter
Jun 17
Full

Hourly Weather History & Observations

Time (AKDT) Temp. Windchill Dew Point Humidity Pressure Visibility Wind Dir Wind Speed Gust Speed Precip Events Conditions
12:53 AM 51.1 °F - 46.0 °F 83% 30.12 in 10.0 mi Calm Calm - N/A   Partly Cloudy
1:53 AM 48.9 °F - 44.1 °F 83% 30.12 in 10.0 mi Calm Calm - N/A   Partly Cloudy
2:53 AM 46.9 °F - 44.1 °F 90% 30.11 in 10.0 mi NNE 3.5 mph - N/A   Overcast
3:53 AM 48.0 °F - 44.1 °F 86% 30.10 in 10.0 mi NE 4.6 mph - N/A   Mostly Cloudy
4:53 AM 46.0 °F 44.8 °F 42.1 °F 86% 30.09 in 10.0 mi ENE 3.5 mph - N/A   Mostly Cloudy
5:53 AM 48.0 °F - 43.0 °F 83% 30.09 in 10.0 mi Calm Calm - N/A   Scattered Clouds
6:53 AM 51.1 °F - 44.1 °F 77% 30.07 in 10.0 mi East 3.5 mph - N/A   Partly Cloudy
7:53 AM 54.0 °F - 45.0 °F 72% 30.06 in 10.0 mi NNE 5.8 mph - N/A   Partly Cloudy
8:53 AM 57.9 °F - 46.0 °F 65% 30.04 in 10.0 mi Calm Calm - N/A   Partly Cloudy
9:53 AM 61.0 °F - 44.1 °F 54% 30.02 in 10.0 mi ENE 5.8 mph - N/A   Partly Cloudy
10:53 AM 64.9 °F - 45.0 °F 48% 29.99 in 10.0 mi East 5.8 mph - N/A   Scattered Clouds
11:53 AM 68.0 °F - 43.0 °F 40% 29.96 in 10.0 mi East 9.2 mph - N/A   Scattered Clouds
12:53 PM 70.0 °F - 39.9 °F 33% 29.93 in 10.0 mi East 12.7 mph - N/A   Scattered Clouds
1:53 PM 71.1 °F - 39.9 °F 32% 29.91 in 10.0 mi East 10.4 mph 16.1 mph N/A   Scattered Clouds
2:53 PM 73.0 °F - 39.9 °F 30% 29.88 in 10.0 mi East 8.1 mph - N/A   Scattered Clouds
3:53 PM 73.9 °F - 39.0 °F 28% 29.85 in 10.0 mi East 11.5 mph - N/A   Mostly Cloudy
4:53 PM 75.0 °F - 39.0 °F 27% 29.82 in 10.0 mi East 6.9 mph - N/A   Scattered Clouds
5:53 PM 75.0 °F - 39.9 °F 28% 29.79 in 10.0 mi SE 9.2 mph - N/A   Mostly Cloudy
6:53 PM 73.9 °F - 39.0 °F 28% 29.76 in 10.0 mi ESE 6.9 mph - N/A   Mostly Cloudy
7:53 PM 73.0 °F - 39.9 °F 30% 29.75 in 10.0 mi SSE 3.5 mph - N/A   Mostly Cloudy
8:53 PM 70.0 °F - 42.1 °F 36% 29.75 in 10.0 mi WSW 6.9 mph - N/A   Mostly Cloudy
9:53 PM 68.0 °F - 41.0 °F 37% 29.74 in 10.0 mi WNW 4.6 mph - N/A   Mostly Cloudy
10:53 PM 66.9 °F - 39.0 °F 36% 29.73 in 10.0 mi Calm Calm - N/A   Mostly Cloudy
11:53 PM 62.1 °F - 44.1 °F 52% 29.73 in 10.0 mi Calm Calm - N/A   Mostly Cloudy